SL-8 DEB, 1479

Orbit data source: Space-Track

SL-8 DEB, 1479 is space debris in LEO originally from a launch on Mon, 15 Mar 1965 UTC launched from the Tyuratam Missile And Space Complex (TTMTR). Debris objects in space refer to the collection of defunct objects orbiting the Earth. Examples of debris include non-operational satellites, rocket bodies, and fragments generated from explosions, collisions, or faulty payload assembly.

Loading next visibility...
Identifier
1479, 1965-020BD
Orbit
LEO
Country
Flag of CISCIS
Related business
Manufacturer
Unknown
Mission
Spacecraft
Bus & Motor
Unknown
Mass
Unknown
Launch date (UTC)
1965-03-15 (61 years ago)
Launch vehicle
Unknown
Launch site
Tyuratam Missile And Space Complex (TTMTR)
Object type
Payload
Rocket body
Debris
Shape & HBR
Unknown shape, 0.1 m
Radar Cross Section
Medium (>0.1 m² and <1 m²)

Expand to show TLE details & history
Last TLE update: 2 days ago

TLE from 2 days ago
0 SL-8 DEB
1 01479U 65020BD  26173.57060311  .00000589  00000-0  13901-2 0  9994
2 01479  56.0338 283.9553 0739378  76.3449 291.8634 12.60015848797048
Epoch: 2026-06-22T13:41Z
TLE epoch observation values (Epoch: 2026-06-22T13:41:40.108Z)
Latitude
-0.00009°
Longitude
167.7835°
Altitude
1,247.316 km
Speed
7.313 km/s
True Right ascension
18h 55m 49s
True Declination
0° 00' 00"
Sunlit
Object was in full shadow at epoch
Visualization orbit readout
Latitude
Unknown
Longitude
Unknown
Altitude
Unknown
Speed
Unknown
Apparent Right ascension
Unknown
Apparent Declination
Unknown
Sunlit
N/A
Visualization observer readout
Local Sidereal Time
14:48:45
Azimuth
Unknown
Elevation
Unknown
Doppler factor
Unknown
Orbital elements
Apogee altitude
1,999.48 km
Perigee altitude
845.926 km
Semi-major axis
7,800.84 km
Eccentricity
0.07394
Inclination
56.0338°
RAAN
283.9553°
Arg. of periapsis
76.3449°
True anomaly
283.74763°
Mean anomaly
291.8634°
Eccentric anomaly
287.83056°
Mean motion
3.15015 °/min
Orbital period
114.28 mins
BSTAR
0.0013901
Loading maneuver chart data...
Computing Atmospheric mass density...

Documentation

Showing up to 5 results
|